Dewpoint
27 27 28 29 30 30 31 31 31 31 31 30 30 29 29 30 30 30 30 30 30 30 30 31 31 31 31 31 31 31 31 31 31 31 31 31 31 30 30 30 30 30 30 30 30 31 31 31 31 31 31 31 31 31 31 31 31 31 31 30 30 30 30 30 30 30 30 30 31
26 26 27 29 29 29 30 30 30 30 30 30 30 29 29 30 30 30 30 30 30 30 30 31 31 31 31 31 31 31 31 31 31 32 32 32 32 32 32 32 32 32 32 32 32 32 32 33 32 32 32 32 32 32 32 31 31 31 31 31 30 30 30 30 30 30 30 30 31
25 25 25 26 27 27 28 29 28 27 27 27 29 29 29 29 29 29 29 29 29 30 30 30 31 31 32 32 32 33 33 33 33 34 34 34 34 34 34 34 34 33 34 34 34 34 34 34 33 33 32 32 32 32 32 33 32 32 31 31 31 31 30 30 31 31 31 31 31
23 24 24 25 25 25 26 28 27 26 26 28 28 29 29 29 29 28 28 29 29 29 30 30 31 31 31 31 32 32 33 33 33 32 32 32 31 31 31 31 32 32 33 33 33 34 34 34 33 33 32 32 32 32 33 33 33 32 31 31 31 31 31 31 31 31 31 31 31
23 24 25 25 25 25 25 26 26 27 28 29 28 28 29 29 29 28 29 29 29 30 30 30 30 29 29 30 30 31 31 31 31 31 31 31 31 31 31 31 31 31 31 31 32 32 33 33 33 33 33 32 32 32 32 32 31 31 31 31 31 31 31 31 31 31 31 31 32
24 24 24 25 25 25 26 26 27 27 28 28 28 29 29 29 29 29 29 29 30 30 30 30 30 30 30 31 31 31 31 31 31 31 31 31 31 31 31 31 31 31 31 31 31 32 32 33 33 33 33 32 31 31 30 30 30 30 30 30 30 31 31 32 32 32 32 32 32
24 24 24 24 25 25 26 26 27 28 28 27 28 29 29 29 29 29 30 30 29 29 30 30 30 31 31 31 31 31 31 31 31 31 31 31 31 31 31 31 31 31 31 31 32 32 33 33 33 33 33 32 32 31 31 31 32 33 34 34 34 33 33 33 33 33 33 33 32
24 24 24 24 25 25 26 27 28 28 28 27 27 28 29 29 29 29 29 29 29 29 29 29 29 30 30 30 30 31 31 31 31 31 31 31 31 31 31 32 32 33 33 34 35 35 36 36 36 36 35 34 33 34 35 36 36 36 36 36 37 37 37 36 36 36 35 34 34
23 23 23 24 25 26 27 26 27 27 27 27 27 28 29 28 28 28 28 28 28 28 28 28 29 29 29 30 30 30 31 31 31 32 33 34 34 35 35 35 36 36 36 36 36 36 36 36 36 35 34 34 33 33 33 34 34 34 34 34 34 35 36 36 36 36 36 36 35
22 23 23 24 24 25 25 24 26 27 27 27 27 27 27 27 27 28 28 28 28 28 28 29 29 30 30 31 31 32 33 34 34 34 34 34 34 34 34 33 33 32 32 33 33 33 33 32 32 32 32 32 32 33 33 33 32 32 32 31 31 32 32 33 34 34 35 35 35
22 22 23 23 24 24 25 25 26 27 27 26 26 26 26 27 27 27 28 28 28 29 29 30 31 32 33 33 34 34 33 32 31 29 28 27 27 28 28 28 28 28 29 29 30 31 31 31 31 31 31 31 31 32 33 33 32 32 32 32 32 32 32 32 32 33 34 35 35
22 23 23 24 24 24 25 25 25 25 25 25 25 25 26 27 27 28 28 28 29 30 31 33 33 33 32 30 30 29 28 27 27 27 27 27 27 28 28 29 29 29 30 30 31 31 31 31 31 31 31 31 32 32 33 33 33 33 33 33 33 33 32 32 32 32 32 33 34
22 22 23 23 23 24 24 24 24 24 24 25 25 26 27 27 28 29 29 31 31 32 32 31 30 29 27 27 26 26 26 27 27 28 28 29 28 28 29 30 30 30 31 31 32 32 33 33 33 33 33 33 33 33 33 33 33 33 33 33 33 33 33 32 32 32 32 33 33
22 22 23 23 23 23 23 23 24 25 26 26 26 26 27 28 30 31 32 32 31 30 29 27 27 26 26 26 27 27 27 28 29 30 30 30 30 30 30 30 31 31 32 32 33 33 33 33 33 33 33 33 33 34 34 34 34 33 33 33 33 33 33 33 32 32 32 32 32
22 22 22 22 22 23 23 23 25 27 27 28 28 28 29 31 32 32 31 29 28 27 27 27 27 27 27 27 28 29 30 30 31 31 31 31 31 31 31 31 31 32 32 33 33 33 33 33 34 34 34 34 34 34 34 34 34 34 34 33 33 33 33 33 32 32 32 32 32
22 22 22 22 22 23 23 24 26 28 29 29 30 30 31 31 30 29 28 27 27 27 27 27 28 28 29 29 30 31 31 31 31 31 31 31 31 31 31 31 32 32 32 32 33 33 33 33 34 34 34 34 34 34 34 34 34 34 34 34 33 33 33 33 33 33 32 32 32
22 23 23 23 23 24 25 27 27 28 28 29 29 29 28 28 27 27 27 27 27 27 28 28 29 29 30 30 31 31 31 31 31 31 31 31 31 31 31 31 32 32 32 33 33 33 33 33 34 34 34 34 34 34 34 34 35 34 34 34 34 34 33 33 33 33 33 33 32
23 25 25 23 23 24 26 27 27 27 27 27 27 27 27 26 26 27 27 27 28 29 29 29 30 30 30 30 31 31 31 31 31 31 31 31 31 31 31 32 32 32 33 33 33 33 33 34 34 34 35 35 35 35 35 35 35 35 35 35 35 34 34 34 34 34 33 34 33
25 24 23 22 23 24 25 27 27 27 27 27 27 27 26 26 27 27 28 29 29 29 30 30 30 30 31 31 31 31 31 31 31 31 31 31 32 32 32 32 32 33 33 33 33 34 34 34 34 35 35 35 35 35 35 35 35 35 35 35 35 35 35 35 35 34 34 34 34
23 22 22 22 23 24 25 26 27 27 27 27 27 27 27 27 27 28 29 29 30 30 30 30 30 30 30 30 31 31 31 31 31 31 31 32 32 32 32 33 33 33 33 34 34 34 34 35 35 35 35 35 35 35 36 36 36 36 36 36 36 36 36 35 35 35 34 34 34
22 22 22 23 24 24 25 26 27 27 27 27 27 27 27 27 28 29 29 29 29 30 30 30 30 30 30 30 31 31 31 31 32 32 32 32 33 33 33 33 33 34 34 34 34 35 35 35 35 35 35 35 35 36 36 36 36 36 36 36 36 36 36 36 35 35 35 35 35
22 22 23 23 25 25 25 26 27 27 27 27 27 27 27 28 28 29 29 29 29 29 29 29 29 30 30 30 31 31 31 32 32 32 32 33 33 33 33 34 34 34 34 34 34 34 35 35 35 35 35 35 36 36 36 36 36 36 36 36 36 36 36 36 36 36 36 36 36
22 22 23 24 25 26 26 26 26 27 27 27 27 27 28 28 28 29 29 29 29 29 29 29 29 30 30 31 31 31 31 31 31 32 32 32 32 33 33 33 34 34 34 34 34 34 34 35 35 35 35 36 36 36 36 36 36 36 36 36 36 37 37 37 37 37 37 37 37
22 23 23 24 26 26 26 26 26 27 27 27 27 27 27 28 28 28 29 29 29 30 30 30 30 30 30 31 31 31 31 31 31 31 31 32 32 32 33 33 33 33 34 34 35 35 35 35 36 36 36 37 37 37 37 37 37 37 36 36 36 36 36 36 36 36 36 37 37
24 24 25 25 26 26 26 26 26 27 27 27 27 27 27 28 28 28 29 29 30 30 30 30 30 30 30 30 30 30 30 31 31 31 31 31 32 32 32 33 33 34 35 35 35 35 36 36 36 36 37 37 36 36 36 35 35 35 35 35 35 35 35 35 35 35 36 36 36
25 25 26 26 26 26 26 26 26 27 27 27 27 27 28 28 28 29 29 29 30 30 30 30 29 29 29 29 29 30 30 30 31 31 31 31 31 31 32 32 33 34 35 35 35 35 35 35 35 35 35 36 35 35 35 34 34 34 34 34 34 34 34 34 35 35 35 36 36
25 26 26 26 26 26 26 26 27 27 27 27 27 27 28 28 29 29 29 29 30 29 29 29 28 28 28 29 29 29 29 30 30 30 31 31 31 31 31 32 33 34 35 34 34 33 33 33 33 32 33 34 34 34 34 34 34 34 34 34 34 34 34 33 33 34 34 35 35
25 26 26 26 26 26 26 26 27 27 27 27 27 28 28 28 29 29 29 29 28 28 27 27 28 28 28 27 28 28 29 29 29 29 30 30 31 31 31 32 32 33 33 32 31 31 31 31 31 31 32 32 33 34 34 34 34 34 34 34 34 34 33 33 33 33 33 33 34
26 26 26 26 26 26 26 26 27 27 27 27 27 28 28 28 28 28 27 27 27 26 26 26 27 27 27 27 27 27 27 27 28 29 29 30 30 30 30 30 31 31 30 30 30 30 31 31 31 31 32 32 33 34 34 34 33 33 33 33 33 32 32 32 32 32 32 32 32
26 26 26 26 26 26 26 26 27 27 27 27 27 28 28 28 27 27 26 26 26 25 25 26 26 26 26 26 26 26 27 27 27 28 28 29 28 28 28 28 28 29 29 30 30 30 31 31 31 31 32 32 32 33 32 32 31 31 31 31 31 31 31 31 31 31 31 31 32
26 26 26 26 26 26 26 26 27 26 27 27 27 27 27 27 26 25 25 25 25 25 25 25 25 25 25 25 25 25 26 26 27 27 27 27 27 27 27 27 28 28 29 29 30 30 30 31 31 31 31 31 31 31 31 31 31 30 30 30 30 30 30 31 31 31 31 31 31
26 26 26 26 26 26 26 26 26 26 26 27 27 27 26 25 24 24 24 24 25 25 25 24 24 24 24 24 25 25 25 26 26 26 27 27 27 27 27 27 28 28 28 29 29 29 30 30 30 31 31 31 31 31 31 31 31 30 30 30 30 30 30 31 31 31 31 31 31
26 26 26 25 25 26 26 26 26 26 27 27 26 26 25 24 24 24 24 24 24 24 24 24 24 24 24 24 24 25 25 25 26 26 26 26 26 27 27 27 27 28 28 28 28 29 29 30 30 30 30 30 31 31 31 31 31 30 30 30 30 30 31 31 31 31 31 31 31
26 26 25 25 25 25 26 26 26 26 26 26 25 25 24 24 24 24 24 24 24 24 24 24 24 24 24 24 24 25 25 25 26 26 26 26 26 26 26 26 27 27 28 28 28 28 29 29 30 30 30 30 31 31 31 30 30 30 30 30 30 31 31 31 31 31 31 31 31
26 25 25 25 25 25 25 25 26 26 26 25 25 24 24 23 23 23 23 23 24 24 24 24 24 24 24 25 25 25 25 25 26 26 26 26 26 26 25 25 26 27 27 28 28 28 29 29 30 30 30 31 31 31 30 30 30 30 30 30 30 31 31 31 31 31 31 32 32
26 25 25 25 25 25 25 25 25 25 25 25 24 24 23 23 23 23 23 23 23 23 23 23 23 24 24 24 25 25 25 25 25 26 26 26 26 25 25 25 25 26 27 28 28 28 29 29 30 30 30 31 31 31 30 30 30 30 30 30 30 30 31 31 31 32 32 32 32
26 25 25 24 24 24 25 25 25 25 25 24 24 23 23 23 23 23 23 23 23 23 23 23 23 23 24 24 24 25 25 25 25 25 26 26 26 25 25 25 25 26 27 28 28 29 29 29 30 30 31 31 31 31 31 30 30 30 30 30 30 31 31 31 32 32 32 33 33
24 25 25 25 24 24 24 24 24 24 24 24 24 23 23 23 23 23 23 23 23 22 22 22 23 23 24 24 24 25 25 25 25 25 25 26 26 26 25 25 26 26 27 28 28 29 29 30 30 31 31 31 31 31 31 31 31 30 30 30 31 31 31 31 31 32 32 33 33
22 22 24 24 24 24 24 24 24 24 24 24 24 23 22 22 22 22 23 23 22 22 22 22 23 23 24 25 25 25 25 25 25 25 26 26 26 26 26 26 26 26 27 28 28 29 29 30 31 31 31 31 31 31 31 31 31 30 30 30 30 30 31 31 31 32 32 33 33
20 20 21 22 23 23 24 23 23 24 24 24 23 23 22 22 22 22 22 22 22 22 22 22 23 23 24 24 24 24 24 25 25 25 26 26 26 27 27 26 26 26 27 28 28 29 30 30 31 31 32 31 31 31 31 31 30 30 29 29 30 30 30 31 32 32 32 33 33
19 20 20 21 22 22 22 22 22 23 23 23 23 22 22 22 22 22 22 22 22 22 22 22 22 23 23 24 24 24 24 24 24 25 25 26 26 27 27 27 26 27 27 28 29 29 30 31 31 31 32 32 32 31 31 31 30 29 29 29 29 30 30 31 31 32 32 32 32